Погода Буй

Хотите узнать прогноз погоды Буй? Тогда Вам сюда: Погода Буй

Поиск расширенной информации на нашем сайте:

Полезная информация:

Новости сайта



02.01.2020
Опубликован Долгосрочный прогноз погоды по городам России и ближнего зарубежья на январь 2020 года.
Карты: Прогноз на январь и февраль 2020 года, Сравнение прогнозируемой аномалии приземной температуры воздуха на январь 2020 года по разным моделям.




Погода Буй - сегодня

Время (UTC), дата Ветер
(°,м/с) 
Видим.   Явления Облачность Т
(°С)
Тd
(°С)
f(%) Тe
(°С)
Pmin
(гПа)
dP
(гПа)
Po
(мм)
O2
(г/м3)
Тmin Tmax R s Состояние
почвы
06 29.11.20 090 (В) 20000 м    10/10 600 м кучево-дожд. 
[Cb cap]
-3.9 -5 92 -6  1036.7  0.9  767  314           
09 29.11.20 100 (В) 10 км    10/10 600 м кучево-дожд. 
[Cb cap]
-3.5 -4.4 93 -6  1037.5  0.8  768  314           
12 29.11.20 090 (В) 15000 м    10/10 600 м кучево-дожд. 
[Cb cap]
-3 -3.4 97 -4  1037.5  0.1  768  313           
15 29.11.20 090 (В) 20000 м    10/10 600 м кучево-дожд. 
[Cb cap]
-2.5 -2.9 97 -5  1037.7  0.2  768  313    -2.5       
18 29.11.20 110 (В) 4{10}  20000 м    10/10 600 м кучево-дожд. 
[Cb cap]
-1.8 -2.4 96 -5  1037.8  -0.1  768  312           
21 29.11.20 110 (В) 3{10}  20000 м    10/10 600 м кучево-дожд. 
[Cb cap]
-0.7 -1.2 96 -3  1036.9  -0.8  768  310           
00 30.11.20 120 (ЮВ) 20000 м    10/10 600 м кучево-дожд. 
[Cb cap]
+0.3 +0 98 -2  1036.8  768  309           
03 30.11.20 120 (ЮВ) 20000 м    10/10 600 м кучево-дожд. 
[Cb cap]
+0.6 +0.2 97 -1  1035.9  -0.9  767  308  -2.5      19  равномерный
мокрый или
старый снег
100% 
06 30.11.20 120 (ЮВ) 15000 м    10/10 600 м кучево-дожд. 
[Cb cap]
+0.9 -0.5 90 -1  1035.2  -0.7  767  308           
09 30.11.20 130 (ЮВ) 50000 м    10/10 600 м кучево-дожд. 
[Cb cap]
+0.5 -1 90 -2  1034.5  -0.7  766  308           
12 30.11.20 130 (ЮВ) 18000 м  слаб. ливневой снег  10/10 300 м кучево-дожд. 
[Cb cap]
-0.3 -1.3 93 -2  1033.8  -0.7  765  309           
15 30.11.20 140 (ЮВ) 20000 м    10/10 600 м 
-0.7 -1.8 92 -3  1033.2  -0.6  765  309    +0.9  0.0     
18 30.11.20 140 (ЮВ) 20000 м  {ливн. осадки}  10/10 600 м кучево-дожд. 
[Cb cap]
-1.4 -2.7 91 -4  1033  -0.3  765  310           
21 30.11.20 130 (ЮВ) 20000 м    10/10 600 м кучево-дожд. 
[Cb cap]
-2.6 -4.1 89 -5  1032.9  0.1  765  312           
00 01.12.20 140 (ЮВ) 20000 м    10/10 600 м кучево-дожд. 
[Cb cap]
-3.2 -4.9 88 -5  1032.8  -0.2  765  312           
03 01.12.20 140 (ЮВ) 20000 м    10/10 600 м кучево-дожд. 
[Cb cap]
-3.6 -5.5 87 -6  1032.6  -0.2  764  313  -3.6      17  равномерный
сухой снег
100% 
06 01.12.20 150 (ЮВ) 30000 м    10/10 600 м кучево-дожд. 
[Cb cap]
-3.8 -6.5 81 -7  1033.1  0.5  765  313  -3.8         
09 01.12.20 170 (Ю) 50000 м    10/10 600 м кучево-дожд. 
[Cb cap]
-4 -7 80 -5  1033.8  0.7  765  314           
12 01.12.20 160 (Ю) 50000 м    10/10 600 м кучево-дожд. 
[Cb cap]
-3.8 -6.8 80 -5  1034  0.2  765  314           
15 01.12.20 160 (Ю) 20000 м    10/10 600 м кучево-дожд. 
[Cb cap]
-3.9 -7 79 -5  1034.8  0.8  766  314    -3.5       
18 01.12.20 160 (Ю) 20000 м  {ливн. осадки}  10/10 600 м кучево-дожд. 
[Cb cap]
-4 -6.4 83 -5  1035.3  0.4  766  314           
21 01.12.20 150 (ЮВ) 10 км  слаб. ливневой снег  10/10 600 м кучево-дожд. 
[Cb cap]
-4.8 -5.5 95 -4  1036  0.7  767  315           
00 02.12.20 170 (Ю) 20000 м  {ливн. осадки}  10/10 600 м кучево-дожд. 
[Cb cap]
-4.8 -5.7 93 -4  1036.6  0.6  767  315           
03 02.12.20 160 (Ю) 20000 м    10/10 600 м кучево-дожд. 
[Cb cap]
-4.4 -5.4 93 -4  1037  0.4  768  315  -5.6    0.8  17  равномерный
сухой снег
100% 
06 02.12.20 тихо ()   30000 м    10/10 600 м кучево-дожд. 
[Cb cap]
-4 -4.9 93 -4  1037.6  0.6  768  315           
Время (UTC), дата Ветер
(°,м/с) 
Видим.   Явления Облачность Т
(°С)
Тd
(°С)
f(%) Тe
(°С)
Pmin
(гПа)
dP
(гПа)
Po
(мм)
O2
(г/м3)
Тmin Tmax R s Состояние
почвы

Для получения пояснительной информации подведите курсор к названию столбца.

ПОГОДА Буй - архив

Всё, что Вы хотите узнать о погоде Буй - удобно и подробно!

Выберите нужную дату (начиная с 1 января 2019* года) и нажмите кнопку "Найти".
Будут отображены архивные сводки погоды по пункту Буй, начиная с указанной даты.


Отображать данные в формате CSV (для использования в таблицах Excel)


Внимание! Наш архив погоды предназначен исключительно для личного некоммерческого использования в познавательных целях. Если Вам необходимы официальные справки о состоянии погоды (для производственных, юридических, коммерческих и т.п. целей), обращайтесь в органы Росгидромета.

*Примечание: данная дата относится к архиву по метеостанциям СССР (Россия, СНГ, Балтия).
Архив по метеостанциям Зарубежной Европы и Азии (кроме Китая) хранится 10 дней, по другим регионам земного шара (Китай, Африка, Америка, Австралия, Океания) - 1 день.

Буй - район местоположения метеостанции


Название, широта, долгота, высота метеостанции:
Буй 58.5°ш. 41.5°д. 103 м над ур. моря [Российская Федерация]

Дополнительная информация

В oтличие oт бoльшинства пoгoдных сайтoв мы публикуем пoдрoбную метеoинфoрмацию в детальнoм прoфессиoнальнoм фoрмате.

Характеристики температуры и влажнoсти вoздуха измеряются на высoте 2 м в тени вдали oт зданий и деревьев.
Скoрoсть ветра измеряется на высoте 10 м (на урoвне рoста челoвека скoрoсть ветра ниже в 1.5-2 раза). Если метеoстанция нахoдится в гoрoде или в лесу, тo скoрoсть ветра занижена на 2-4 м/с пo сравнению с oткрытым местoм. Скoрoсть ветра над акватoриями крупных рек и oзёр, а также на вершинах хoлмoв на 2-5 м/с выше, чем в oбычных услoвиях.
Атмoсфернoе давление в разных тoчках местнoсти мoжет значительнo oтличаться oт давления на метеoстанции, в зависимoсти oт услoвий рельефа (при пoдъёме на 10 м давление пoнижается примернo на 1 мм рт.ст.).